OBJECT C

基本信息
目录编号:
61871
目录名称:
OBJECT C
国际标识:
2024-203C
轨道中心:
EARTH
物体状态:
在轨
发射日期:
2024-11-09 UTC
国别:
中国 (CN)
轨道信息
数据来源: 国际轨道数据 AOE轨道数据
星历时间: 2026-09-04T15:55:03+0800 2026-08-29T23:00:00+0800
半长轴: 6865.46km 6865.6km
偏心率: 0.0012733 0.0013618
轨道倾角: 97.417° 97.421°
近地点辐角: 70.546° 88.291°
升交点赤经: 315.970° 310.308°
平近点角: 289.715° 268.743°
近地点: 478.581km 478.113km
远地点: 496.065km 496.813km
周期: 94.355分钟 94.358分钟
每日圈数: 15.26154 15.261072
详细信息
发射场:
JSC
轨道高度:
LEO
数据来源:
AOE Working Group
参考系:
TEME
时间系统:
UTC
历元类型:
SGP4
2D轨道图
3D轨道图
轨道高度分析图
轨道倾角分析图
轨道综合分析图
查看轨道综合分析图